EW2889 Weather Reports


time (UTC)temp
F
wind
direction
speed
knots
gust
knots
rain 1hr
in
rain 24hr
in
rain mn
in
humidity
%
barometer
mb
20240518191607 61 127 0.0 7.0 0.00 0.00 0.00 96 1013.2
20240518190050 61 40 0.0 4.3 0.00 0.00 0.00 96 1013.3
20240518184549 61 86 1.7 5.2 0.00 0.00 0.00 96 1013.2
20240518183106 61 29 1.7 6.1 0.00 0.00 0.00 96 1013.3
20240518181548 61 76 0.0 4.3 0.00 0.00 0.00 97 1013.3
20240518180052 61 103 0.0 4.3 0.00 0.00 0.00 97 1013.5
20240518174547 61 60 1.7 5.2 0.00 0.00 0.00 96 1013.5
20240518173046 61 95 0.0 3.5 0.00 0.00 0.00 97 1013.7
20240518171545 61 90 0.0 4.3 0.00 0.00 0.00 97 1014.0
20240518170047 61 30 0.0 3.5 0.00 0.00 0.00 96 1014.1
20240518164544 61 82 0.0 5.2 0.00 0.00 0.00 96 1014.0
20240518163054 61 133 0.0 6.1 0.00 0.00 0.00 97 1013.7
20240518161541 60 98 0.0 4.3 0.00 0.00 0.00 97 1013.5
20240518160042 60 120 0.9 5.2 0.00 0.00 0.00 97 1013.5
20240518154541 59 60 0.9 6.1 0.00 0.00 0.00 97 1013.6
20240518153038 59 78 0.9 4.3 0.00 0.00 0.00 96 1013.9
20240518151547 59 135 0.9 5.2 0.00 0.00 0.00 96 1013.9
20240518150039 59 257 0.9 6.1 0.00 0.00 0.00 96 1013.9
20240518144536 59 64 1.7 5.2 0.00 0.00 0.00 97 1013.4
20240518143036 59 141 0.0 3.5 0.00 0.00 0.00 96 1013.7
20240518141535 59 84 1.7 8.7 0.00 0.00 0.00 96 1013.9
20240518140036 59 136 0.9 5.2 0.00 0.00 0.00 97 1013.8
20240518134533 59 96 0.9 3.5 0.00 0.00 0.00 97 1014.2
20240518133032 59 98 0.9 4.3 0.00 0.00 0.00 96 1014.3
20240518131532 59 63 0.0 4.3 0.00 0.00 0.00 96 1014.3
20240518130035 59 87 2.6 5.2 0.00 0.00 0.00 96 1014.2
20240518124531 59 79 0.0 3.5 0.00 0.00 0.00 96 1014.6
20240518123030 59 94 0.0 2.6 0.00 0.00 0.00 96 1014.5
20240518121539 59 128 0.0 2.6 0.00 0.00 0.00 96 1014.6
20240518120029 59 184 0.0 3.5 0.00 0.00 0.00 96 1014.5
20240518114534 59 60 0.0 1.7 0.00 0.00 0.00 96 1014.0
20240518113030 59 94 1.7 4.3 0.00 0.00 0.00 96 1013.6
20240518111527 59 63 1.7 4.3 0.00 0.00 0.00 95 1013.3
20240518110030 59 86 0.9 5.2 0.00 0.00 0.00 95 1013.2
20240518104531 59 79 0.0 3.5 0.00 0.00 0.00 95 1013.6
20240518103025 59 85 0.0 0.0 0.00 0.00 0.00 95 1013.3
20240518101527 59 98 0.9 4.3 0.00 0.00 0.00 95 1013.0
20240518100032 59 84 0.9 6.1 0.00 0.00 0.00 95 1012.9
20240518094522 59 85 0.0 5.2 0.00 0.00 0.00 95 1012.8
20240518093021 59 68 0.0 0.0 0.00 0.00 0.00 96 1013.2
20240518091521 59 81 0.0 0.0 0.00 0.00 0.00 95 1013.0
20240518090020 59 122 0.0 0.0 0.00 0.00 0.00 95 1012.8
20240518084519 59 112 0.0 0.0 0.00 0.00 0.00 95 1012.8
20240518083020 59 101 0.0 0.0 0.00 0.00 0.00 95 1012.9
20240518081515 59 90 0.0 0.0 0.00 0.00 0.00 94 1013.3
20240518080016 59 103 0.0 0.0 0.00 0.00 0.00 94 1013.6
20240518074524 59 145 0.0 0.0 0.00 0.00 0.00 94 1014.0
20240518073029 59 157 0.0 0.0 0.00 0.00 0.00 94 1013.8
20240518071511 59 90 0.0 0.0 0.00 0.00 0.00 94 1013.7
20240518070010 59 143 0.0 0.0 0.00 0.00 0.00 94 1013.7
20240518064512 59 124 0.0 0.0 0.00 0.00 0.00 94 1013.8
20240518063006 59 124 0.0 0.0 0.00 0.00 0.00 94 1014.0
20240518061506 59 107 0.0 0.0 0.00 0.00 0.00 94 1013.9
20240518060005 59 116 0.0 0.0 0.00 0.00 0.00 94 1013.9
20240518054513 59 122 0.0 0.0 0.00 0.00 0.00 94 1014.0
20240518053002 60 43 0.0 0.0 0.00 0.00 0.00 94 1014.2
20240518051601 60 70 0.0 0.0 0.00 0.00 0.00 93 1014.2
20240518050057 60 101 0.0 0.0 0.00 0.00 0.00 93 1014.6
20240518044606 60 84 0.0 0.0 0.00 0.00 0.00 93 1014.7
20240518043054 60 103 0.0 0.0 0.00 0.00 0.00 93 1015.1
20240518041607 60 103 0.0 0.0 0.00 0.00 0.00 93 1015.2
20240518040052 60 105 0.0 0.0 0.00 0.00 0.00 93 1015.0
20240518034551 60 136 0.0 0.0 0.00 0.00 0.00 93 1014.8
20240518033053 60 136 0.0 0.0 0.00 0.00 0.00 93 1015.0
20240518031551 60 60 0.0 0.0 0.00 0.00 0.00 92 1015.0
20240518030049 60 60 0.0 0.0 0.00 0.00 0.00 92 1015.0
20240518024556 60 60 0.0 0.0 0.00 0.00 0.00 92 1014.9
20240518023046 60 117 0.0 0.0 0.00 0.00 0.00 92 1014.9
20240518021546 60 117 0.0 0.0 0.00 0.00 0.00 91 1014.7
20240518020046 60 117 0.0 0.0 0.00 0.00 0.00 91 1014.6
20240518014546 61 32 0.0 0.0 0.00 0.00 0.00 91 1014.7
20240518013047 61 96 0.0 0.0 0.00 0.00 0.00 91 1014.7
20240518011549 61 96 0.0 0.0 0.00 0.00 0.00 91 1014.6
20240518010044 61 96 0.0 0.0 0.00 0.00 0.00 90 1014.3
20240518004543 61 89 0.0 0.0 0.00 0.00 0.00 90 1014.3
20240518003049 61 53 0.0 0.0 0.00 0.00 0.00 89 1014.3
20240518001546 61 91 0.0 0.0 0.00 0.00 0.00 89 1014.4
20240518000040 62 80 0.0 4.3 0.00 0.00 0.00 89 1014.3
20240517234544 62 131 0.0 0.0 0.00 0.00 0.00 89 1014.3
20240517233046 62 50 0.0 4.3 0.00 0.00 0.00 88 1014.2
20240517231539 63 22 0.0 0.9 0.00 0.00 0.00 87 1014.1
20240517230041 64 103 0.0 0.0 0.00 0.00 0.00 87 1013.9
20240517224540 64 46 0.0 1.7 0.00 0.00 0.00 86 1013.6
20240517223052 65 67 0.0 3.5 0.00 0.00 0.00 84 1013.5
20240517221538 66 102 0.0 4.3 0.00 0.00 0.00 82 1013.6
20240517220035 67 351 0.9 5.2 0.00 0.00 0.00 80 1013.8
20240517214538 67 17 0.0 4.3 0.00 0.00 0.00 78 1013.5
20240517213035 68 72 0.0 0.0 0.00 0.00 0.00 78 1014.0
20240517211534 68 75 0.0 4.3 0.00 0.00 0.00 78 1014.0
20240517210039 68 72 0.0 0.0 0.00 0.00 0.00 77 1014.0
20240517204535 68 15 0.0 5.2 0.00 0.00 0.00 77 1013.8
20240517203033 69 359 0.9 7.0 0.00 0.00 0.00 74 1013.9
20240517201531 69 23 0.0 3.5 0.00 0.00 0.00 76 1013.7
20240517200041 70 79 0.0 0.9 0.00 0.00 0.00 77 1014.0
20240517194530 71 38 0.0 0.0 0.00 0.00 0.00 75 1014.2
20240517193026 69 41 0.0 3.5 0.00 0.00 0.00 77 1013.9